Burbank, CA

6:01 PM PDT on July 20, 2017 (GMT -0700)
Burbank-Glendale-Pasadena

Weather History for KBUR - May, 2012

Change the Weather History Date:

Tuesday, May 1, 2012

  Actual Average Record
Temperature  
Mean Temperature 58 °F 64 °F  
Max Temperature 60 °F 75 °F 98 °F (1947)
Min Temperature 56 °F 53 °F 40 °F (1967)
Degree Days  
Heating Degree Days 7 3  
Month to date heating degree days 7 3  
Since 1 July heating degree days 1470 1500  
Cooling Degree Days 0 2  
Month to date cooling degree days 0 2  
Year to date cooling degree days 47 53  
Growing Degree Days 7 (Base 50)    
Moisture  
Dew Point 54 °F    
Average Humidity 90    
Maximum Humidity 100    
Minimum Humidity 80    
Precipitation  
Precipitation T in 0.02 in 0.26 in (1955)
Month to date precipitation T 0.02  
Year to date precipitation 5.48 12.11  
Since 1 July precipitation 8.77  
Sea Level Pressure  
Sea Level Pressure 29.89 in    
Wind  
Wind Speed 4 mph (SSE)    
Max Wind Speed 9 mph    
Max Gust Speed 12 mph    
Visibility 8 miles    
Events Rain    
T = Trace of Precipitation, MM = Missing Value Source: NWS Daily Summary

Daily Weather History Graph

Daily Weather History Graph

Search for Another Location

Airport or City:

Trip Planner

Search our weather history database for the weather conditions in past years. The results will help you decide how hot, cold, wet, or windy it might be!

Date:

Astronomy

May. 01, 2012 Rise Set
Actual Time 6:03 AM PDT 7:38 PM PDT
Civil Twilight 5:36 AM PDT 8:04 PM PDT
Nautical Twilight 5:04 AM PDT 8:37 PM PDT
Astronomical Twilight 4:30 AM PDT 9:11 PM PDT
Moon 2:58 PM PDT (5/1) 2:49 AM PDT (5/1)
Length of Visible Light 14h 28m
Length of Day
13h 34m
Waxing Gibbous, 75% of the Moon is Illuminated
May 1
Waxing Gibbous
May 5
Full
May 12
Last Quarter
May 20
New
May 28
First Quarter

Hourly Weather History & Observations

Time (PDT) Temp. Dew Point Humidity Pressure Visibility Wind Dir Wind Speed Gust Speed Precip Events Conditions
12:53 AM 57.9 °F 54.0 °F 87% 29.91 in 10.0 mi SSE 5.8 mph - N/A   Overcast
1:53 AM 57.0 °F 54.0 °F 89% 29.89 in 10.0 mi South 5.8 mph - N/A   Overcast
2:53 AM 57.0 °F 55.0 °F 93% 29.89 in 7.0 mi South 5.8 mph - N/A   Overcast
3:53 AM 55.9 °F 55.0 °F 97% 29.88 in 5.0 mi South 4.6 mph - N/A   Overcast
4:53 AM 55.9 °F 55.0 °F 97% 29.88 in 7.0 mi South 3.5 mph - 0.00 in   Overcast
5:53 AM 55.9 °F 55.0 °F 97% 29.88 in 6.0 mi SSE 4.6 mph - 0.00 in   Overcast
6:38 AM 55.4 °F 53.6 °F 94% 29.90 in 10.0 mi SSE 5.8 mph - N/A   Overcast
6:53 AM 55.9 °F 54.0 °F 93% 29.88 in 10.0 mi South 3.5 mph - N/A   Overcast
7:53 AM 57.0 °F 54.0 °F 89% 29.90 in 10.0 mi South 4.6 mph - N/A   Overcast
8:00 AM 57.2 °F 53.6 °F 88% 29.92 in 10.0 mi SSE 4.6 mph - N/A   Overcast
8:53 AM 57.0 °F 53.1 °F 87% 29.90 in 9.0 mi South 5.8 mph - N/A   Overcast
9:53 AM 57.9 °F 53.1 °F 84% 29.91 in 8.0 mi South 5.8 mph - N/A   Overcast
10:18 AM 57.2 °F 53.6 °F 88% 29.94 in 9.0 mi SSE 5.8 mph - N/A   Overcast
10:53 AM 57.9 °F 53.1 °F 84% 29.92 in 10.0 mi South 6.9 mph - N/A   Overcast
11:53 AM 59.0 °F 53.1 °F 81% 29.92 in 10.0 mi SSE 5.8 mph - N/A   Overcast
12:53 PM 59.0 °F 53.1 °F 81% 29.91 in 10.0 mi SSE 8.1 mph - N/A   Overcast
1:53 PM 57.9 °F 53.1 °F 84% 29.91 in 4.0 mi SSE 5.8 mph - 0.00 in Rain Light Rain
2:53 PM 57.9 °F 53.1 °F 84% 29.90 in 10.0 mi South 5.8 mph - 0.00 in Rain Light Rain
3:53 PM 57.9 °F 53.1 °F 84% 29.88 in 4.0 mi SSE 5.8 mph - N/A   Overcast
4:53 PM 57.0 °F 54.0 °F 89% 29.88 in 3.0 mi SSW 3.5 mph - N/A   Overcast
5:53 PM 57.0 °F 54.0 °F 89% 29.87 in 3.0 mi Calm Calm - N/A   Overcast
6:15 PM 57.2 °F 53.6 °F 88% 29.89 in 6.0 mi Calm Calm - N/A   Overcast
6:50 PM 57.2 °F 53.6 °F 88% 29.89 in 3.0 mi South 3.5 mph - N/A   Overcast
6:53 PM 57.0 °F 54.0 °F 89% 29.87 in 3.0 mi Calm Calm - N/A   Overcast
7:53 PM 57.0 °F 54.0 °F 89% 29.87 in 8.0 mi Calm Calm - N/A   Overcast
8:53 PM 57.0 °F 53.1 °F 87% 29.88 in 3.0 mi Calm Calm - N/A   Overcast
9:00 PM 57.2 °F 53.6 °F 88% 29.91 in 10.0 mi ENE 3.5 mph - N/A   Overcast
9:53 PM 57.0 °F 53.1 °F 87% 29.88 in 10.0 mi East 3.5 mph - N/A   Overcast
10:53 PM 57.9 °F 53.1 °F 84% 29.88 in 7.0 mi SSE 3.5 mph - N/A   Overcast
11:00 PM 57.2 °F 53.6 °F 88% 29.90 in 9.0 mi SE 4.6 mph - N/A   Overcast
11:13 PM 57.2 °F 51.8 °F 82% 29.90 in 9.0 mi ESE 5.8 mph - N/A   Overcast
11:53 PM 57.9 °F 52.0 °F 81% 29.88 in 10.0 mi SSE 4.6 mph - N/A   Overcast